Year,Month,Day,Hour,Minute,Value (Times are PST for temperature in C)
2018,04,23,00,00,8.20
2018,04,23,00,01,8.20
2018,04,23,00,02,8.10
2018,04,23,00,03,8.10
2018,04,23,00,04,8.10
2018,04,23,00,05,8.00
2018,04,23,00,06,8.00
2018,04,23,00,07,8.00
2018,04,23,00,08,8.00
2018,04,23,00,09,8.00
2018,04,23,00,10,8.00
2018,04,23,00,11,8.00
2018,04,23,00,12,8.00
2018,04,23,00,13,8.00
2018,04,23,00,14,8.00
2018,04,23,00,15,8.00
2018,04,23,00,16,8.00
2018,04,23,00,17,8.00
2018,04,23,00,18,8.00
2018,04,23,00,19,7.90
2018,04,23,00,20,7.90
2018,04,23,00,21,7.90
2018,04,23,00,22,7.90
2018,04,23,00,23,7.80
2018,04,23,00,24,7.80
2018,04,23,00,25,7.80
2018,04,23,00,26,7.80
2018,04,23,00,27,7.70
2018,04,23,00,28,7.70
2018,04,23,00,29,7.70
2018,04,23,00,30,7.70
2018,04,23,00,31,7.60
2018,04,23,00,32,7.60
2018,04,23,00,33,7.50
2018,04,23,00,34,7.50
2018,04,23,00,35,7.50
2018,04,23,00,36,7.40
2018,04,23,00,37,7.40
2018,04,23,00,38,7.40
2018,04,23,00,39,7.30
2018,04,23,00,40,7.30
2018,04,23,00,41,7.30
2018,04,23,00,42,7.30
2018,04,23,00,43,7.30
2018,04,23,00,44,7.30
2018,04,23,00,45,7.30
2018,04,23,00,46,7.30
2018,04,23,00,47,7.20
2018,04,23,00,48,7.20
2018,04,23,00,49,7.20
2018,04,23,00,50,7.20
2018,04,23,00,51,7.20
2018,04,23,00,52,7.20
2018,04,23,00,53,7.20
2018,04,23,00,54,7.20
2018,04,23,00,55,7.20
2018,04,23,00,56,7.20
2018,04,23,00,57,7.10
2018,04,23,00,58,7.10
2018,04,23,00,59,7.10
2018,04,23,01,00,7.10
2018,04,23,01,01,7.10
2018,04,23,01,02,7.10
2018,04,23,01,03,7.10
2018,04,23,01,04,7.10
2018,04,23,01,05,7.10
2018,04,23,01,06,7.10
2018,04,23,01,07,7.10
2018,04,23,01,08,7.10
2018,04,23,01,09,7.10
2018,04,23,01,10,7.00
2018,04,23,01,11,7.00
2018,04,23,01,12,7.00
2018,04,23,01,13,7.00
2018,04,23,01,14,7.00
2018,04,23,01,15,6.90
2018,04,23,01,16,6.90
2018,04,23,01,17,6.90
2018,04,23,01,18,6.90
2018,04,23,01,19,6.80
2018,04,23,01,20,6.80
2018,04,23,01,21,6.80
2018,04,23,01,22,6.70
2018,04,23,01,23,6.70
2018,04,23,01,24,6.70
2018,04,23,01,25,6.70
2018,04,23,01,26,6.70
2018,04,23,01,27,6.70
2018,04,23,01,28,6.70
2018,04,23,01,29,6.70
2018,04,23,01,30,6.70
2018,04,23,01,31,6.70
2018,04,23,01,32,6.70
2018,04,23,01,33,6.70
2018,04,23,01,34,6.80
2018,04,23,01,35,6.80
2018,04,23,01,36,6.80
2018,04,23,01,37,6.80
2018,04,23,01,38,6.80
2018,04,23,01,39,6.80
2018,04,23,01,40,6.80
2018,04,23,01,41,6.80
2018,04,23,01,42,6.80
2018,04,23,01,43,6.80
2018,04,23,01,44,6.80
2018,04,23,01,45,6.90
2018,04,23,01,46,6.90
2018,04,23,01,47,6.90
2018,04,23,01,48,6.90
2018,04,23,01,49,6.90
2018,04,23,01,50,6.90
2018,04,23,01,51,6.90
2018,04,23,01,52,6.90
2018,04,23,01,53,6.90
2018,04,23,01,54,6.90
2018,04,23,01,55,6.90
2018,04,23,01,56,6.80
2018,04,23,01,57,6.80
2018,04,23,01,58,6.80
2018,04,23,01,59,6.80
2018,04,23,02,00,6.80
2018,04,23,02,01,6.70
2018,04,23,02,02,6.70
2018,04,23,02,03,6.70
2018,04,23,02,04,6.70
2018,04,23,02,05,6.70
2018,04,23,02,06,6.80
2018,04,23,02,07,6.80
2018,04,23,02,08,6.80
2018,04,23,02,09,6.80
2018,04,23,02,10,6.80
2018,04,23,02,11,6.80
2018,04,23,02,12,6.80
2018,04,23,02,13,6.80
2018,04,23,02,14,6.80
2018,04,23,02,15,6.80
2018,04,23,02,16,6.80
2018,04,23,02,17,6.80
2018,04,23,02,18,6.80
2018,04,23,02,19,6.80
2018,04,23,02,20,6.80
2018,04,23,02,21,6.80
2018,04,23,02,22,6.80
2018,04,23,02,23,6.80
2018,04,23,02,24,6.80
2018,04,23,02,25,6.80
2018,04,23,02,26,6.80
2018,04,23,02,27,6.80
2018,04,23,02,28,6.80
2018,04,23,02,29,6.80
2018,04,23,02,30,6.80
2018,04,23,02,31,6.80
2018,04,23,02,32,6.80
2018,04,23,02,33,6.80
2018,04,23,02,34,6.80
2018,04,23,02,35,6.80
2018,04,23,02,36,6.80
2018,04,23,02,37,6.80
2018,04,23,02,38,6.70
2018,04,23,02,39,6.70
2018,04,23,02,40,6.70
2018,04,23,02,41,6.60
2018,04,23,02,42,6.60
2018,04,23,02,43,6.60
2018,04,23,02,44,6.50
2018,04,23,02,45,6.50
2018,04,23,02,46,6.50
2018,04,23,02,47,6.40
2018,04,23,02,48,6.40
2018,04,23,02,49,6.40
2018,04,23,02,50,6.40
2018,04,23,02,51,6.30
2018,04,23,02,52,6.30
2018,04,23,02,53,6.30
2018,04,23,02,54,6.30
2018,04,23,02,55,6.30
2018,04,23,02,56,6.30
2018,04,23,02,57,6.30
2018,04,23,02,58,6.40
2018,04,23,02,59,6.40
2018,04,23,03,00,6.40
2018,04,23,03,01,6.40
2018,04,23,03,02,6.50
2018,04,23,03,03,6.50
2018,04,23,03,04,6.50
2018,04,23,03,05,6.50
2018,04,23,03,06,6.50
2018,04,23,03,07,6.60
2018,04,23,03,08,6.60
2018,04,23,03,09,6.50
2018,04,23,03,10,6.50
2018,04,23,03,11,6.50
2018,04,23,03,12,6.50
2018,04,23,03,13,6.50
2018,04,23,03,14,6.60
2018,04,23,03,15,6.60
2018,04,23,03,16,6.60
2018,04,23,03,17,6.60
2018,04,23,03,18,6.60
2018,04,23,03,19,6.60
2018,04,23,03,20,6.60
2018,04,23,03,21,6.60
2018,04,23,03,22,6.70
2018,04,23,03,23,6.70
2018,04,23,03,24,6.80
2018,04,23,03,25,6.80
2018,04,23,03,26,6.80
2018,04,23,03,27,6.90
2018,04,23,03,28,6.90
2018,04,23,03,29,7.00
2018,04,23,03,30,7.00
2018,04,23,03,31,7.10
2018,04,23,03,32,7.10
2018,04,23,03,33,7.20
2018,04,23,03,34,7.20
2018,04,23,03,35,7.20
2018,04,23,03,36,7.20
2018,04,23,03,37,7.30
2018,04,23,03,38,7.20
2018,04,23,03,39,7.20
2018,04,23,03,40,7.20
2018,04,23,03,41,7.10
2018,04,23,03,42,7.00
2018,04,23,03,43,6.90
2018,04,23,03,44,6.80
2018,04,23,03,45,6.70
2018,04,23,03,46,6.60
2018,04,23,03,47,6.50
2018,04,23,03,48,6.40
2018,04,23,03,49,6.30
2018,04,23,03,50,6.20
2018,04,23,03,51,6.10
2018,04,23,03,52,6.00
2018,04,23,03,53,5.90
2018,04,23,03,54,5.70
2018,04,23,03,55,5.60
2018,04,23,03,56,5.50
2018,04,23,03,57,5.40
2018,04,23,03,58,5.30
2018,04,23,03,59,5.20
2018,04,23,04,00,5.10
2018,04,23,04,01,5.10
2018,04,23,04,02,5.00
2018,04,23,04,03,5.00
2018,04,23,04,04,4.90
2018,04,23,04,05,4.90
2018,04,23,04,06,4.80
2018,04,23,04,07,4.80
2018,04,23,04,08,4.80
2018,04,23,04,09,4.70
2018,04,23,04,10,4.70
2018,04,23,04,11,4.70
2018,04,23,04,12,4.70
2018,04,23,04,13,4.70
2018,04,23,04,14,4.60
2018,04,23,04,15,4.70
2018,04,23,04,16,4.70
2018,04,23,04,17,4.70
2018,04,23,04,18,4.70
2018,04,23,04,19,4.70
2018,04,23,04,20,4.70
2018,04,23,04,21,4.70
2018,04,23,04,22,4.70
2018,04,23,04,23,4.70
2018,04,23,04,24,4.70
2018,04,23,04,25,4.70
2018,04,23,04,26,4.70
2018,04,23,04,27,4.70
2018,04,23,04,28,4.70
2018,04,23,04,29,4.70
2018,04,23,04,30,4.70
2018,04,23,04,31,4.70
2018,04,23,04,32,4.80
2018,04,23,04,33,4.80
2018,04,23,04,34,4.80
2018,04,23,04,35,4.90
2018,04,23,04,36,4.90
2018,04,23,04,37,4.90
2018,04,23,04,38,5.00
2018,04,23,04,39,5.10
2018,04,23,04,40,5.10
2018,04,23,04,41,5.20
2018,04,23,04,42,5.20
2018,04,23,04,43,5.20
2018,04,23,04,44,5.30
2018,04,23,04,45,5.30
2018,04,23,04,46,5.30
2018,04,23,04,47,5.40
2018,04,23,04,48,5.40
2018,04,23,04,49,5.40
2018,04,23,04,50,5.50
2018,04,23,04,51,5.50
2018,04,23,04,52,5.50
2018,04,23,04,53,5.60
2018,04,23,04,54,5.60
2018,04,23,04,55,5.70
2018,04,23,04,56,5.80
2018,04,23,04,57,5.80
2018,04,23,04,58,5.90
2018,04,23,04,59,5.90
2018,04,23,05,00,6.00
2018,04,23,05,01,6.10
2018,04,23,05,02,6.10
2018,04,23,05,03,6.20
2018,04,23,05,04,6.20
2018,04,23,05,05,6.30
2018,04,23,05,06,6.30
2018,04,23,05,07,6.30
2018,04,23,05,08,6.40
2018,04,23,05,09,6.40
2018,04,23,05,10,6.40
2018,04,23,05,11,6.50
2018,04,23,05,12,6.50
2018,04,23,05,13,6.50
2018,04,23,05,14,6.50
2018,04,23,05,15,6.50
2018,04,23,05,16,6.50
2018,04,23,05,17,6.50
2018,04,23,05,18,6.50
2018,04,23,05,19,6.50
2018,04,23,05,20,6.40
2018,04,23,05,21,6.40
2018,04,23,05,22,6.50
2018,04,23,05,23,6.50
2018,04,23,05,24,6.50
2018,04,23,05,25,6.50
2018,04,23,05,26,6.60
2018,04,23,05,27,6.60
2018,04,23,05,28,6.60
2018,04,23,05,29,6.60
2018,04,23,05,30,6.60
2018,04,23,05,31,6.60
2018,04,23,05,32,6.60
2018,04,23,05,33,6.50
2018,04,23,05,34,6.40
2018,04,23,05,35,6.30
2018,04,23,05,36,6.20
2018,04,23,05,37,6.10
2018,04,23,05,38,6.10
2018,04,23,05,39,6.00
2018,04,23,05,40,6.00
2018,04,23,05,41,6.00
2018,04,23,05,42,5.90
2018,04,23,05,43,5.90
2018,04,23,05,44,5.90
2018,04,23,05,45,5.90
2018,04,23,05,46,5.90
2018,04,23,05,47,5.90
2018,04,23,05,48,6.00
2018,04,23,05,49,6.00
2018,04,23,05,50,6.10
2018,04,23,05,51,6.20
2018,04,23,05,52,6.20
2018,04,23,05,53,6.30
2018,04,23,05,54,6.40
2018,04,23,05,55,6.40
2018,04,23,05,56,6.50
2018,04,23,05,57,6.60
2018,04,23,05,58,6.60
2018,04,23,05,59,6.70
2018,04,23,06,00,6.80
2018,04,23,06,01,6.90
2018,04,23,06,02,6.90
2018,04,23,06,03,7.00
2018,04,23,06,04,7.00
2018,04,23,06,05,7.10
2018,04,23,06,06,7.10
2018,04,23,06,07,7.20
2018,04,23,06,08,7.20
2018,04,23,06,09,7.20
2018,04,23,06,10,7.30
2018,04,23,06,11,7.30
2018,04,23,06,12,7.30
2018,04,23,06,13,7.30
2018,04,23,06,14,7.40
2018,04,23,06,15,7.40
2018,04,23,06,16,7.40
2018,04,23,06,17,7.50
2018,04,23,06,18,7.50
2018,04,23,06,19,7.50
2018,04,23,06,20,7.60
2018,04,23,06,21,7.60
2018,04,23,06,22,7.60
2018,04,23,06,23,7.60
2018,04,23,06,24,7.60
2018,04,23,06,25,7.60
2018,04,23,06,26,7.70
2018,04,23,06,27,7.70
2018,04,23,06,28,7.70
2018,04,23,06,29,7.70
2018,04,23,06,30,7.70
2018,04,23,06,31,7.70
2018,04,23,06,32,7.70
2018,04,23,06,33,7.70
2018,04,23,06,34,7.70
2018,04,23,06,35,7.70
2018,04,23,06,36,7.70
2018,04,23,06,37,7.70
2018,04,23,06,38,7.70
2018,04,23,06,39,7.70
2018,04,23,06,40,7.80
2018,04,23,06,41,7.80
2018,04,23,06,42,7.80
2018,04,23,06,43,7.80
2018,04,23,06,44,7.80
2018,04,23,06,45,7.80
2018,04,23,06,46,7.80
2018,04,23,06,47,7.80
2018,04,23,06,48,7.80
2018,04,23,06,49,7.80
2018,04,23,06,50,7.80
2018,04,23,06,51,7.80
2018,04,23,06,52,7.80
2018,04,23,06,53,7.90
2018,04,23,06,54,7.90
2018,04,23,06,55,8.00
2018,04,23,06,56,8.00
2018,04,23,06,57,8.00
2018,04,23,06,58,8.00
2018,04,23,06,59,8.10
2018,04,23,07,00,8.10
2018,04,23,07,01,8.10
2018,04,23,07,02,8.10
2018,04,23,07,03,8.20
2018,04,23,07,04,8.20
2018,04,23,07,05,8.20
2018,04,23,07,06,8.20
2018,04,23,07,07,8.20
2018,04,23,07,08,8.20
2018,04,23,07,09,8.20
2018,04,23,07,10,8.20
2018,04,23,07,11,8.30
2018,04,23,07,12,8.30
2018,04,23,07,13,8.30
2018,04,23,07,14,8.30
2018,04,23,07,15,8.30
2018,04,23,07,16,8.30
2018,04,23,07,17,8.40
2018,04,23,07,18,8.40
2018,04,23,07,19,8.40
2018,04,23,07,20,8.40
2018,04,23,07,21,8.50
2018,04,23,07,22,8.50
2018,04,23,07,23,8.50
2018,04,23,07,24,8.60
2018,04,23,07,25,8.60
2018,04,23,07,26,8.60
2018,04,23,07,27,8.60
2018,04,23,07,28,8.70
2018,04,23,07,29,8.70
2018,04,23,07,30,8.70
2018,04,23,07,31,8.70
2018,04,23,07,32,8.80
2018,04,23,07,33,8.80
2018,04,23,07,34,8.80
2018,04,23,07,35,8.80
2018,04,23,07,36,8.80
2018,04,23,07,37,8.90
2018,04,23,07,38,8.90
2018,04,23,07,39,8.90
2018,04,23,07,40,8.90
2018,04,23,07,41,8.90
2018,04,23,07,42,9.00
2018,04,23,07,43,9.00
2018,04,23,07,44,9.00
2018,04,23,07,45,9.10
2018,04,23,07,46,9.10
2018,04,23,07,47,9.10
2018,04,23,07,48,9.20
2018,04,23,07,49,9.20
2018,04,23,07,50,9.20
2018,04,23,07,51,9.30
2018,04,23,07,52,9.30
2018,04,23,07,53,9.30
2018,04,23,07,54,9.30
2018,04,23,07,55,9.40
2018,04,23,07,56,9.40
2018,04,23,07,57,9.40
2018,04,23,07,58,9.40
2018,04,23,07,59,9.40
2018,04,23,08,00,9.40
2018,04,23,08,01,9.40
2018,04,23,08,02,9.50
2018,04,23,08,03,9.50
2018,04,23,08,04,9.50
2018,04,23,08,05,9.50
2018,04,23,08,06,9.40
2018,04,23,08,07,9.40
2018,04,23,08,08,9.40
2018,04,23,08,09,9.40
2018,04,23,08,10,9.40
2018,04,23,08,11,9.40
2018,04,23,08,12,9.40
2018,04,23,08,13,9.40
2018,04,23,08,14,9.40
2018,04,23,08,15,9.50
2018,04,23,08,16,9.50
2018,04,23,08,17,9.50
2018,04,23,08,18,9.60
2018,04,23,08,19,9.60
2018,04,23,08,20,9.60
2018,04,23,08,21,9.60
2018,04,23,08,22,9.60
2018,04,23,08,23,9.60
2018,04,23,08,24,9.70
2018,04,23,08,25,9.70
2018,04,23,08,26,9.70
2018,04,23,08,27,9.80
2018,04,23,08,28,9.80
2018,04,23,08,29,9.80
2018,04,23,08,30,9.80
2018,04,23,08,31,9.80
2018,04,23,08,32,9.80
2018,04,23,08,33,9.80
2018,04,23,08,34,9.90
2018,04,23,08,35,9.90
2018,04,23,08,36,9.90
2018,04,23,08,37,9.90
2018,04,23,08,38,9.90
2018,04,23,08,39,10.00
2018,04,23,08,40,10.00
2018,04,23,08,41,10.10
2018,04,23,08,42,10.10
2018,04,23,08,43,10.20
2018,04,23,08,44,10.20
2018,04,23,08,45,10.20
2018,04,23,08,46,10.20
2018,04,23,08,47,10.20
2018,04,23,08,48,10.20
2018,04,23,08,49,10.20
2018,04,23,08,50,10.20
2018,04,23,08,51,10.20
2018,04,23,08,52,10.20
2018,04,23,08,53,10.20
2018,04,23,08,54,10.20
2018,04,23,08,55,10.20
2018,04,23,08,56,10.30
2018,04,23,08,57,10.30
2018,04,23,08,58,10.30
2018,04,23,08,59,10.30
2018,04,23,09,00,10.40
2018,04,23,09,01,10.40
2018,04,23,09,02,10.40
2018,04,23,09,03,10.50
2018,04,23,09,04,10.60
2018,04,23,09,05,10.60
2018,04,23,09,06,10.70
2018,04,23,09,07,10.70
2018,04,23,09,08,10.80
2018,04,23,09,09,10.80
2018,04,23,09,10,10.80
2018,04,23,09,11,10.80
2018,04,23,09,12,10.70
2018,04,23,09,13,10.70
2018,04,23,09,14,10.70
2018,04,23,09,15,10.60
2018,04,23,09,16,10.60
2018,04,23,09,17,10.50
2018,04,23,09,18,10.50
2018,04,23,09,19,10.50
2018,04,23,09,20,10.50
2018,04,23,09,21,10.50
2018,04,23,09,22,10.50
2018,04,23,09,23,10.50
2018,04,23,09,24,10.50
2018,04,23,09,25,10.60
2018,04,23,09,26,10.60
2018,04,23,09,27,10.60
2018,04,23,09,28,10.60
2018,04,23,09,29,10.60
2018,04,23,09,30,10.60
2018,04,23,09,31,10.60
2018,04,23,09,32,10.60
2018,04,23,09,33,10.60
2018,04,23,09,34,10.60
2018,04,23,09,35,10.60
2018,04,23,09,36,10.70
2018,04,23,09,37,10.70
2018,04,23,09,38,10.70
2018,04,23,09,39,10.80
2018,04,23,09,40,10.80
2018,04,23,09,41,10.80
2018,04,23,09,42,10.90
2018,04,23,09,43,10.90
2018,04,23,09,44,11.00
2018,04,23,09,45,11.10
2018,04,23,09,46,11.20
2018,04,23,09,47,11.20
2018,04,23,09,48,11.30
2018,04,23,09,49,11.30
2018,04,23,09,50,11.30
2018,04,23,09,51,11.30
2018,04,23,09,52,11.40
2018,04,23,09,53,11.40
2018,04,23,09,54,11.50
2018,04,23,09,55,11.50
2018,04,23,09,56,11.40
2018,04,23,09,57,11.40
2018,04,23,09,58,11.40
2018,04,23,09,59,11.40
2018,04,23,10,00,11.40
2018,04,23,10,01,11.40
2018,04,23,10,02,11.40
2018,04,23,10,03,11.40
2018,04,23,10,04,11.40
2018,04,23,10,05,11.40
2018,04,23,10,06,11.40
2018,04,23,10,07,11.40
2018,04,23,10,08,11.40
2018,04,23,10,09,11.50
2018,04,23,10,10,11.50
2018,04,23,10,11,11.60
2018,04,23,10,12,11.60
2018,04,23,10,13,11.60
2018,04,23,10,14,11.70
2018,04,23,10,15,11.60
2018,04,23,10,16,11.60
2018,04,23,10,17,11.60
2018,04,23,10,18,11.60
2018,04,23,10,19,11.60
2018,04,23,10,20,11.60
2018,04,23,10,21,11.60
2018,04,23,10,22,11.60
2018,04,23,10,23,11.60
2018,04,23,10,24,11.60
2018,04,23,10,25,11.60
2018,04,23,10,26,11.60
2018,04,23,10,27,11.70
2018,04,23,10,28,11.70
2018,04,23,10,29,11.80
2018,04,23,10,30,11.80
2018,04,23,10,31,11.90
2018,04,23,10,32,11.90
2018,04,23,10,33,12.00
2018,04,23,10,34,12.00
2018,04,23,10,35,12.10
2018,04,23,10,36,12.10
2018,04,23,10,37,12.10
2018,04,23,10,38,12.10
2018,04,23,10,39,12.10
2018,04,23,10,40,12.20
2018,04,23,10,41,12.20
2018,04,23,10,42,12.30
2018,04,23,10,43,12.30
2018,04,23,10,44,12.30
2018,04,23,10,45,12.30
2018,04,23,10,46,12.30
2018,04,23,10,47,12.30
2018,04,23,10,48,12.20
2018,04,23,10,49,12.20
2018,04,23,10,50,12.10
2018,04,23,10,51,12.10
2018,04,23,10,52,12.10
2018,04,23,10,53,12.10
2018,04,23,10,54,12.20
2018,04,23,10,55,12.20
2018,04,23,10,56,12.20
2018,04,23,10,57,12.20
2018,04,23,10,58,12.30
2018,04,23,10,59,12.30
2018,04,23,11,00,12.30
2018,04,23,11,01,12.40
2018,04,23,11,02,12.40
2018,04,23,11,03,12.40
2018,04,23,11,04,12.50
2018,04,23,11,05,12.50
2018,04,23,11,06,12.60
2018,04,23,11,07,12.60
2018,04,23,11,08,12.60
2018,04,23,11,09,12.60
2018,04,23,11,10,12.70
2018,04,23,11,11,12.70
2018,04,23,11,12,12.80
2018,04,23,11,13,12.80
2018,04,23,11,14,12.80
2018,04,23,11,15,12.70
2018,04,23,11,16,12.60
2018,04,23,11,17,12.60
2018,04,23,11,18,12.60
2018,04,23,11,19,12.70
2018,04,23,11,20,12.60
2018,04,23,11,21,12.60
2018,04,23,11,22,12.70
2018,04,23,11,23,12.70
2018,04,23,11,24,12.80
2018,04,23,11,25,12.90
2018,04,23,11,26,13.00
2018,04,23,11,27,13.10
2018,04,23,11,28,13.20
2018,04,23,11,29,13.20
2018,04,23,11,30,13.20
2018,04,23,11,31,13.20
2018,04,23,11,32,13.20
2018,04,23,11,33,13.20
2018,04,23,11,34,13.30
2018,04,23,11,35,13.30
2018,04,23,11,36,13.50
2018,04,23,11,37,13.50
2018,04,23,11,38,13.60
2018,04,23,11,39,13.60
2018,04,23,11,40,13.70
2018,04,23,11,41,13.70
2018,04,23,11,42,13.70
2018,04,23,11,43,13.80
2018,04,23,11,44,13.80
2018,04,23,11,45,13.80
2018,04,23,11,46,13.80
2018,04,23,11,47,13.90
2018,04,23,11,48,14.00
2018,04,23,11,49,14.10
2018,04,23,11,50,14.10
2018,04,23,11,51,14.20
2018,04,23,11,52,14.20
2018,04,23,11,53,14.20
2018,04,23,11,54,14.10
2018,04,23,11,55,14.10
2018,04,23,11,56,14.10
2018,04,23,11,57,14.10
2018,04,23,11,58,14.10
2018,04,23,11,59,14.10
2018,04,23,12,00,14.10
2018,04,23,12,01,14.10
2018,04,23,12,02,14.10
2018,04,23,12,03,14.10
2018,04,23,12,04,14.20
2018,04,23,12,05,14.20
2018,04,23,12,06,14.20
2018,04,23,12,07,14.20
2018,04,23,12,08,14.20
2018,04,23,12,09,14.30
2018,04,23,12,10,14.30
2018,04,23,12,11,14.30
2018,04,23,12,12,14.30
2018,04,23,12,13,14.30
2018,04,23,12,14,14.20
2018,04,23,12,15,14.20
2018,04,23,12,16,14.30
2018,04,23,12,17,14.30
2018,04,23,12,18,14.20
2018,04,23,12,19,14.20
2018,04,23,12,20,14.10
2018,04,23,12,21,14.10
2018,04,23,12,22,14.10
2018,04,23,12,23,14.10
2018,04,23,12,24,14.20
2018,04,23,12,25,14.20
2018,04,23,12,26,14.20
2018,04,23,12,27,14.20
2018,04,23,12,28,14.30
2018,04,23,12,29,14.40
2018,04,23,12,30,14.50
2018,04,23,12,31,14.50
2018,04,23,12,32,14.60
2018,04,23,12,33,14.50
2018,04,23,12,34,14.40
2018,04,23,12,35,14.30
2018,04,23,12,36,14.30
2018,04,23,12,37,14.20
2018,04,23,12,38,14.20
2018,04,23,12,39,14.20
2018,04,23,12,40,14.20
2018,04,23,12,41,14.20
2018,04,23,12,42,14.20
2018,04,23,12,43,14.20
2018,04,23,12,44,14.20
2018,04,23,12,45,14.30
2018,04,23,12,46,14.30
2018,04,23,12,47,14.40
2018,04,23,12,48,14.50
2018,04,23,12,49,14.50
2018,04,23,12,50,14.50
2018,04,23,12,51,14.40
2018,04,23,12,52,14.40
2018,04,23,12,53,14.30
2018,04,23,12,54,14.30
2018,04,23,12,55,14.30
2018,04,23,12,56,14.30
2018,04,23,12,57,14.30
2018,04,23,12,58,14.30
2018,04,23,12,59,14.40
2018,04,23,13,00,14.50
2018,04,23,13,01,14.50
2018,04,23,13,02,14.60
2018,04,23,13,03,14.60
2018,04,23,13,04,14.60
2018,04,23,13,05,14.70
2018,04,23,13,06,14.70
2018,04,23,13,07,14.70
2018,04,23,13,08,14.70
2018,04,23,13,09,14.70
2018,04,23,13,10,14.70
2018,04,23,13,11,14.70
2018,04,23,13,12,14.60
2018,04,23,13,13,14.60
2018,04,23,13,14,14.70
2018,04,23,13,15,14.60
2018,04,23,13,16,14.60
2018,04,23,13,17,14.60
2018,04,23,13,18,14.60
2018,04,23,13,19,14.70
2018,04,23,13,20,14.70
2018,04,23,13,21,14.70
2018,04,23,13,22,14.80
2018,04,23,13,23,14.80
2018,04,23,13,24,14.90
2018,04,23,13,25,15.00
2018,04,23,13,26,15.00
2018,04,23,13,27,15.00
2018,04,23,13,28,15.00
2018,04,23,13,29,14.90
2018,04,23,13,30,14.90
2018,04,23,13,31,14.90
2018,04,23,13,32,15.00
2018,04,23,13,33,14.90
2018,04,23,13,34,14.90
2018,04,23,13,35,14.80
2018,04,23,13,36,14.80
2018,04,23,13,37,14.80
2018,04,23,13,38,14.80
2018,04,23,13,39,14.90
2018,04,23,13,40,14.90
2018,04,23,13,41,15.00
2018,04,23,13,42,15.00
2018,04,23,13,43,15.10
2018,04,23,13,44,15.20
2018,04,23,13,45,15.20
2018,04,23,13,46,15.30
2018,04,23,13,47,15.30
2018,04,23,13,48,15.40
2018,04,23,13,49,15.60
2018,04,23,13,50,15.70
2018,04,23,13,51,15.70
2018,04,23,13,52,15.60
2018,04,23,13,53,15.60
2018,04,23,13,54,15.60
2018,04,23,13,55,15.50
2018,04,23,13,56,15.40
2018,04,23,13,57,15.40
2018,04,23,13,58,15.40
2018,04,23,13,59,15.40
2018,04,23,14,00,15.30
2018,04,23,14,01,15.30
2018,04,23,14,02,15.30
2018,04,23,14,03,15.30
2018,04,23,14,04,15.30
2018,04,23,14,05,15.30
2018,04,23,14,06,15.30
2018,04,23,14,07,15.30
2018,04,23,14,08,15.30
2018,04,23,14,09,15.30
2018,04,23,14,10,15.30
2018,04,23,14,11,15.30
2018,04,23,14,12,15.30
2018,04,23,14,13,15.30
2018,04,23,14,14,15.30
2018,04,23,14,15,15.40
2018,04,23,14,16,15.50
2018,04,23,14,17,15.60
2018,04,23,14,18,15.70
2018,04,23,14,19,15.70
2018,04,23,14,20,15.70
2018,04,23,14,21,15.80
2018,04,23,14,22,15.80
2018,04,23,14,23,15.80
2018,04,23,14,24,15.90
2018,04,23,14,25,15.90
2018,04,23,14,26,16.00
2018,04,23,14,27,16.00
2018,04,23,14,28,16.00
2018,04,23,14,29,16.00
2018,04,23,14,30,16.00
2018,04,23,14,31,16.10
2018,04,23,14,32,16.10
2018,04,23,14,33,16.20
2018,04,23,14,34,16.20
2018,04,23,14,35,16.20
2018,04,23,14,36,16.20
2018,04,23,14,37,16.20
2018,04,23,14,38,16.30
2018,04,23,14,39,16.30
2018,04,23,14,40,16.30
2018,04,23,14,41,16.20
2018,04,23,14,42,16.20
2018,04,23,14,43,16.10
2018,04,23,14,44,16.10
2018,04,23,14,45,16.10
2018,04,23,14,46,16.10
2018,04,23,14,47,16.10
2018,04,23,14,48,16.10
2018,04,23,14,49,16.10
2018,04,23,14,50,16.20
2018,04,23,14,51,16.20
2018,04,23,14,52,16.30
2018,04,23,14,53,16.40
2018,04,23,14,54,16.40
2018,04,23,14,55,16.40
2018,04,23,14,56,16.40
2018,04,23,14,57,16.30
2018,04,23,14,58,16.30
2018,04,23,14,59,16.40
2018,04,23,15,00,16.40
2018,04,23,15,01,16.40
2018,04,23,15,02,16.40
2018,04,23,15,03,16.30
2018,04,23,15,04,16.30
2018,04,23,15,05,16.20
2018,04,23,15,06,16.20
2018,04,23,15,07,16.20
2018,04,23,15,08,16.30
2018,04,23,15,09,16.40
2018,04,23,15,10,16.50
2018,04,23,15,11,16.60
2018,04,23,15,12,16.60
2018,04,23,15,13,16.70
2018,04,23,15,14,16.80
2018,04,23,15,15,16.90
2018,04,23,15,16,17.00
2018,04,23,15,17,17.00
2018,04,23,15,18,17.00
2018,04,23,15,19,17.00
2018,04,23,15,20,17.00
2018,04,23,15,21,17.10
2018,04,23,15,22,17.10
2018,04,23,15,23,17.10
2018,04,23,15,24,17.20
2018,04,23,15,25,17.20
2018,04,23,15,26,17.30
2018,04,23,15,27,17.20
2018,04,23,15,28,17.10
2018,04,23,15,29,17.00
2018,04,23,15,30,16.90
2018,04,23,15,31,17.00
2018,04,23,15,32,17.00
2018,04,23,15,33,17.10
2018,04,23,15,34,17.10
2018,04,23,15,35,17.10
2018,04,23,15,36,17.10
2018,04,23,15,37,17.10
2018,04,23,15,38,17.10
2018,04,23,15,39,17.20
2018,04,23,15,40,17.30
2018,04,23,15,41,17.30
2018,04,23,15,42,17.40
2018,04,23,15,43,17.40
2018,04,23,15,44,17.40
2018,04,23,15,45,17.40
2018,04,23,15,46,17.40
2018,04,23,15,47,17.40
2018,04,23,15,48,17.40
2018,04,23,15,49,17.40
2018,04,23,15,50,17.40
2018,04,23,15,51,17.50
2018,04,23,15,52,17.50
2018,04,23,15,53,17.50
2018,04,23,15,54,17.50
2018,04,23,15,55,17.50
2018,04,23,15,56,17.50
2018,04,23,15,57,17.50
2018,04,23,15,58,17.50
2018,04,23,15,59,17.50
2018,04,23,16,00,17.40
2018,04,23,16,01,17.40
2018,04,23,16,02,17.40
2018,04,23,16,03,17.40
2018,04,23,16,04,17.30
2018,04,23,16,05,17.30
2018,04,23,16,06,17.40
2018,04,23,16,07,17.50
2018,04,23,16,08,17.50
2018,04,23,16,09,17.60
2018,04,23,16,10,17.70
2018,04,23,16,11,17.70
2018,04,23,16,12,17.80
2018,04,23,16,13,17.80
2018,04,23,16,14,17.70
2018,04,23,16,15,17.70
2018,04,23,16,16,17.60
2018,04,23,16,17,17.50
2018,04,23,16,18,17.40
2018,04,23,16,19,17.30
2018,04,23,16,20,17.30
2018,04,23,16,21,17.30
2018,04,23,16,22,17.40
2018,04,23,16,23,17.50
2018,04,23,16,24,17.60
2018,04,23,16,25,17.60
2018,04,23,16,26,17.70
2018,04,23,16,27,17.80
2018,04,23,16,28,17.80
2018,04,23,16,29,17.90
2018,04,23,16,30,18.00
2018,04,23,16,31,18.00
2018,04,23,16,32,18.10
2018,04,23,16,33,18.20
2018,04,23,16,34,18.10
2018,04,23,16,35,18.10
2018,04,23,16,36,18.10
2018,04,23,16,37,18.10
2018,04,23,16,38,18.10
2018,04,23,16,39,18.10
2018,04,23,16,40,18.00
2018,04,23,16,41,18.00
2018,04,23,16,42,18.00
2018,04,23,16,43,17.90
2018,04,23,16,44,17.90
2018,04,23,16,45,18.00
2018,04,23,16,46,18.00
2018,04,23,16,47,18.10
2018,04,23,16,48,18.10
2018,04,23,16,49,18.10
2018,04,23,16,50,18.00
2018,04,23,16,51,18.00
2018,04,23,16,52,17.90
2018,04,23,16,53,17.90
2018,04,23,16,54,17.80
2018,04,23,16,55,17.80
2018,04,23,16,56,17.80
2018,04,23,16,57,17.80
2018,04,23,16,58,17.80
2018,04,23,16,59,17.80
2018,04,23,17,00,17.80
2018,04,23,17,01,17.80
2018,04,23,17,02,17.80
2018,04,23,17,03,17.80
2018,04,23,17,04,17.90
2018,04,23,17,05,17.90
2018,04,23,17,06,17.90
2018,04,23,17,07,17.80
2018,04,23,17,08,17.80
2018,04,23,17,09,17.80
2018,04,23,17,10,17.80
2018,04,23,17,11,17.80
2018,04,23,17,12,17.80
2018,04,23,17,13,17.80
2018,04,23,17,14,17.80
2018,04,23,17,15,17.80
2018,04,23,17,16,17.90
2018,04,23,17,17,17.90
2018,04,23,17,18,17.90
2018,04,23,17,19,17.90
2018,04,23,17,20,17.90
2018,04,23,17,21,17.90
2018,04,23,17,22,18.00
2018,04,23,17,23,18.00
2018,04,23,17,24,18.00
2018,04,23,17,25,18.00
2018,04,23,17,26,17.90
2018,04,23,17,27,17.90
2018,04,23,17,28,17.80
2018,04,23,17,29,17.80
2018,04,23,17,30,17.80
2018,04,23,17,31,17.80
2018,04,23,17,32,17.80
2018,04,23,17,33,17.80
2018,04,23,17,34,17.80
2018,04,23,17,35,17.90
2018,04,23,17,36,17.90
2018,04,23,17,37,18.00
2018,04,23,17,38,18.10
2018,04,23,17,39,18.10
2018,04,23,17,40,18.20
2018,04,23,17,41,18.20
2018,04,23,17,42,18.30